Back to catalog

NIMBUS 2 DEB

AliveLEO
NORAD 38183·DEBRIS·🇺🇸 United States

Launched May 15, 1966 from Vandenberg Space Force Base

Loading…

Next Passes (next 24 hours)

TLE

FreshSource: Space-Track

Epoch: Sep 14, 2026, 06:56 UTC

1 38183U 66040BB  26257.28914992  .00001182  00000-0  20149-2 0  9995
2 38183 100.4608 189.9902 0058197 348.7784 165.2940 13.46737206721010

Track NIMBUS 2 DEB in real time with AllMySat

Download on the App Store